CZ-6A DEB, 56621

Orbit data source: Space-Track

CZ-6A DEB, 56621 is space debris in SSO originally from a launch on Fri, 11 Nov 2022 UTC launched from the Taiyaun Space Center, China (TSC). Debris objects in space refer to the collection of defunct objects orbiting the Earth. Examples of debris include non-operational satellites, rocket bodies, and fragments generated from explosions, collisions, or faulty payload assembly.

Loading next visibility...
Identifier
56621, 2022-151AEV
Orbit
SSO
Country
Flag of CNCN / PRC
Related business
Manufacturer
SAST
Mission
Spacecraft
Bus & Motor
Unknown
Mass
Unknown
Launch date (UTC)
2022-11-11 (3 years ago)
Launch vehicle
Unknown
Launch site
Taiyaun Space Center, China (TSC)
Object type
Payload
Rocket body
Debris
Shape & HBR
Unknown shape, 0.1 m
Radar Cross Section
Small (<0.1 m²)

Expand to show TLE details & history
Last TLE update: 1 day ago

TLE from 1 day ago
0 CZ-6A DEB
1 56621U 22151AEV 25348.70124124  .00000982  00000-0  70033-3 0  9999
2 56621  98.9104 325.3596 0114899 218.5364 140.7556 13.96614720139524
Epoch: 2025-12-14T16:49Z
TLE epoch observation values (Epoch: 2025-12-14T16:49:47.243Z)
Latitude
0.00006°
Longitude
-10.69764°
Altitude
973.623 km
Speed
7.332 km/s
True Right ascension
21h 41m 26s
True Declination
0° 00' 00"
Sunlit
Object was in daylight at epoch
Visualization orbit readout
Latitude
Unknown
Longitude
Unknown
Altitude
Unknown
Speed
Unknown
Apparent Right ascension
Unknown
Apparent Declination
Unknown
Sunlit
N/A
Visualization observer readout
Local Sidereal Time
22:47:50
Azimuth
Unknown
Elevation
Unknown
Doppler factor
Unknown
Orbital elements
Apogee altitude
986.397 km
Perigee altitude
819.084 km
Semi-major axis
7,280.877 km
Eccentricity
0.01149
Inclination
98.9104°
RAAN
325.3596°
Arg. of periapsis
218.5364°
True anomaly
141.57935°
Mean anomaly
140.7556°
Eccentric anomaly
141.16839°
Mean motion
3.49356 °/min
Orbital period
103.05 mins
BSTAR
0.00070033
Loading maneuver chart data...
Computing Atmospheric mass density...

Documentation

Showing up to 5 results
|